Simultaneous Nadir Overpasses (SNOs) Predictions

Prediction of SNOs between GOES-15 and TERRA Satellite Orbit:

Table of predicted SNOs for the next 14.0 days since TLE Epoch: 11/4/2022
Index Date Time (GOES-15) GOES-15 Lat,Lon TERRA Lat,Lon Distance(km) Time Diff (sec)
1 11/05/2022 06:37:17 0.24,-128.41 0.68,-126.31 238.35 80
2 11/05/2022 18:57:38 -0.24,-128.39 0.39,-131.25 325.50 80
3 11/07/2022 18:44:39 -0.24,-128.38 -0.44,-127.47 103.60 80
4 11/08/2022 07:05:10 0.23,-128.40 -0.61,-132.46 460.77 80
5 11/10/2022 06:49:30 0.23,-128.38 0.19,-128.67 32.55 80
6 11/12/2022 06:31:09 0.23,-128.35 0.95,-124.87 395.38 80
7 11/12/2022 18:51:29 -0.22,-128.32 0.11,-129.81 169.71 80
8 11/14/2022 18:38:30 -0.21,-128.29 -0.72,-126.03 258.13 80
9 11/15/2022 06:58:59 0.21,-128.31 -0.35,-131.00 305.57 80
10 11/17/2022 06:40:38 0.20,-128.28 0.46,-127.21 121.80 80
11 11/17/2022 19:00:59 -0.19,-128.23 0.61,-132.15 444.63 80
